Regional Weather Roundup
Issued by NWS

Home | Current Version | Previous Version | Graphics & Text | Print | Product List | Glossary On
Versions: 1 2 3 4 5 6 7 8 9 10 11 12 13 14 15 16 17 18 19 20 21 22 23 24 25 26 27 28 29 30 31 32 33 34 35 36 37 38 39 40 41 42 43 44 45 46 47 48 49 50
000
ASUS43 KFSD 230402
RWRSD

WEATHER ROUNDUP FOR SOUTH DAKOTA
NATIONAL WEATHER SERVICE SIOUX FALLS SD
1000 PM CST THU FEB 22 2018

NOTE: "FAIR" INDICATES FEW OR NO CLOUDS BELOW 12,000 FEET WITH NO
SIGNIFICANT WEATHER AND/OR OBSTRUCTIONS TO VISIBILITY.


SDZ001>005-009-010-012>017-230500-
NORTHWEST AND NORTH CENTRAL SOUTH DAKOTA

CITY           SKY/WX    TMP DP  RH WIND       PRES   REMARKS
BUFFALO          N/A      5  -2  72 NW15      30.06S WCI -13
FAITH            N/A      4   2  91 NW8       30.12F WCI  -9
MOBRIDGE       LGT SNOW  19  16  88 MISG      30.14S FOG
$$

SDZ012>016-024>037-041>051-057-063-072>074-230500-
SOUTHWEST AND SOUTH CENTRAL SOUTH DAKOTA

CITY           SKY/WX    TMP DP  RH WIND       PRES   REMARKS
RAPID CTY ARPT PTCLDY     5   0  79 NW9       30.09S WCI  -9
PIERRE         LGT SNOW  15  13  91 NW8       30.15  FOG     WCI   4
CUSTER         PTCLDY    11   3  70 NW3       29.93F
ELLSWORTH AFB  PTCLDY     6   2  85 N8        30.08R WCI  -7
PHILIP         PTCLDY     5   2  87 W8        30.15R WCI  -8
PINE RIDGE     MOCLDY    14  12  92 W3        30.08R
SPEARFISH        N/A     10   1  67 W10       30.08R WCI  -3
WINNER         CLOUDY    22  19  89 CALM      30.11F
$$

SDZ004>011-016>023-039-040-230500-
NORTHEAST SOUTH DAKOTA

CITY           SKY/WX    TMP DP  RH WIND       PRES   REMARKS
ABERDEEN       LGT SNOW  23  21  92 E8        30.19F VSB 1   WCI  14
WATERTOWN      CLOUDY    21  19  92 E7        30.12F WCI  12
BROOKINGS      FLURRIES  22  20  92 E7        30.13F WCI  13
SISSETON         N/A     22  20  92 E5        30.19F WCI  16
$$

SDZ017-020-022-023-036>040-048>070-230500-
SOUTHEAST SOUTH DAKOTA

CITY           SKY/WX    TMP DP  RH WIND       PRES   REMARKS
SIOUX FALLS    LGT SNOW  25  23  92 S6        30.14F VSB 1   WCI  18
HURON          LGT SNOW  22  21  96 SW3       30.16S FOG
CHAMBERLAIN    LGT SNOW  20  20 100 CALM      30.14S
MITCHELL       CLOUDY    22  20  92 NW3       30.16F FOG
YANKTON        FLURRIES  24  23  96 S3        30.17S
$$

ABBREVIATIONS USED IN REMARKS
   TC - TEMPERATURE IN CELSIUS
  WCI - WIND CHILL INDEX
   HX - HEAT INDEX
  VSB - VISIBILITY





USA.gov is the U.S. government's official web portal to all federal, state and local government web resources and services.